STARLINK-33837, 63501

Orbit data source: Space-Track

STARLINK-33837, 63501 is a payload satellite owned by SpaceX/Seattle (US) in LEO that was launched on Mon, 07 Apr 2025 UTC via an FALCON 9 launch vehicle from the Air Force Western Test Range (AFWTR). Payload-class satellites include a variety of spacecraft equipped with specific instruments for various scientific and technological missions. These include communications satellites like Starlink; space stations such as the ISS; scientific satellites like the Hubble; Earth observation satellites from companies like Planet Labs, Umbra, and HawkEye 360; GPS; miniature CubeSats for education and research; and military/defense satellites.

Loading next visibility...
Identifier
63501, 2025-071J
Orbit
LEO
Country
Flag of USUS
Related business
Manufacturer
SpaceX/Seattle
Mission
Operational Commercial Communications
Bus & Motor
STARLINK V2MO, Unknown motor
Mass
575 kg wet, ~530 kg dry
Launch date (UTC)
2025-04-07 (1 year ago)
Launch vehicle
FALCON 9
Launch site
Air Force Western Test Range (AFWTR)
Object type
Payload
Rocket body
Debris
Shape & HBR
Box + 1 Pan, 17.7 m
Radar Cross Section
41.120 m², Large (>1 m²)

Expand to show TLE details & history
Last TLE update: 13 hours ago

TLE from 13 hours ago
0 STARLINK-33837
1 63501U 25071J   26262.87124173  .00012266  00000-0  40627-3 0  9990
2 63501  53.1604 317.0021 0001266  79.0111 281.1033 15.31709219 82459
Epoch: 2026-09-19T20:54Z
TLE epoch observation values (Epoch: 2026-09-19T20:54:35.285Z)
Latitude
-0°
Longitude
4.58152°
Altitude
471.446 km
Speed
7.632 km/s
True Right ascension
21h 08m 00s
True Declination
0° 00' 00"
Sunlit
Object was in full shadow at epoch
Visualization orbit readout
Latitude
Unknown
Longitude
Unknown
Altitude
Unknown
Speed
Unknown
Apparent Right ascension
Unknown
Apparent Declination
Unknown
Sunlit
N/A
Visualization observer readout
Local Sidereal Time
02:38:01
Azimuth
Unknown
Elevation
Unknown
Doppler factor
Unknown
Orbital elements
Apogee altitude
471.836 km
Perigee altitude
470.102 km
Semi-major axis
6,849.106 km
Eccentricity
0.00013
Inclination
53.1604°
RAAN
317.0021°
Arg. of periapsis
79.0111°
True anomaly
281.08906°
Mean anomaly
281.1033°
Eccentric anomaly
281.09618°
Mean motion
3.82906 °/min
Orbital period
94.02 mins
BSTAR
0.00040627
Loading maneuver chart data...
Computing Atmospheric mass density...
Loading historical data...
Loading historical data...
Loading historical data...
Loading historical data...
Loading historical data...
Loading historical data...
Loading historical data...

Documentation

Showing up to 5 results
|